Regional Weather Roundup
Issued by NWS

Home | Current Version | Previous Version | Text Only | Print | Product List | Glossary Off
Versions: 1 2 3 4 5 6 7 8 9 10 11 12 13 14 15 16 17 18 19 20 21 22 23 24 25 26 27 28 29 30 31 32 33 34 35 36 37 38 39 40 41 42 43 44 45 46 47 48 49 50

000
ASUS43 KTOP 010408
RWRKS

WEATHER ROUNDUP FOR KANSAS
NATIONAL WEATHER SERVICE GOODLAND KS
1000 PM CST SAT JAN 31 2015

NOTE:  "FAIR" INDICATES FEW OR NO CLOUDS BELOW 12,000 FEET WITH NO
SIGNIFICANT WEATHER AND/OR OBSTRUCTIONS TO VISIBILITY.

KSZ001>006-013>018-027>032-041>047-010500-
NORTHWEST KANSAS

CITY           SKY/WX    TMP DP  RH WIND       PRES   REMARKS
GOODLAND       FLURRIES  31  31 100 N13       29.83R WCI  21
HAYS           CLOUDY    39  34  81 SW3       29.76S
HILL CITY      LGT SNOW  33  31  92 N14       29.80R FOG     WCI  23
RUSSELL        LGT RAIN  39  39 100 S7        29.75F
$$

KSZ061>065-074>080-084>089-010500-
SOUTHWEST KANSAS

CITY           SKY/WX    TMP DP  RH WIND       PRES   REMARKS
DODGE CITY     CLOUDY    40  38  93 SW9       29.78S
ELKHART          N/A     38  33  82 NW8         N/A
GARDEN CITY    LGT RAIN  37  36  96 NW9       29.79S
LIBERAL        CLOUDY    41  36  81 W9        29.82R
PRATT          CLOUDY    39  37  93 SW13      29.80F WCI  32
$$

KSZ066>073-081>083-090>101-010500-
SOUTHEAST KANSAS

CITY           SKY/WX    TMP DP  RH WIND       PRES   REMARKS
CHANUTE        LGT RAIN  39  38  96 S9        29.88F
COFFEYVILLE    LGT RAIN  40  39  97 S10       29.89F FOG     WCI  33
HUTCHINSON     LGT RAIN  40  38  93 S13       29.80F FOG     WCI  32
MEDICINE LODGE   N/A     41  40  96 S10       29.81F
NEWTON         CLOUDY    37  34  87 S15       29.83F WCI  28
PARSONS        LGT RAIN  40  39  97 S7        29.89F FOG
WICHITA INTL   LGT RAIN  40  39  97 S13       29.83F FOG     WCI  32
WICHITA JABRA  LGT RAIN  39  39 100 S13       29.83F WCI  31
WICHITA MCCONL LGT RAIN  39  38  96 S13       29.84F WCI  32
WINFIELD       LGT RAIN  40  29  64 S10       29.86F WCI  33
$$

KSZ007>012-019>026-033>040-048>060-102>105-010500-
NORTHEAST KANSAS

CITY           SKY/WX    TMP DP  RH WIND       PRES   REMARKS
CONCORDIA      LGT RAIN  35  35 100 S5        29.80F
EMPORIA        LGT RAIN  37  37 100 S10       29.85F FOG     WCI  30
LAWRENCE       LGT SNOW  33  32  96 E7        29.90F FOG
MANHATTAN      LGT RAIN  35  34  96 S7        29.84F
MARYSVILLE     LGT SNOW  32  32 100 SE6       29.84F
OLATHE IND     LGT RAIN  34  33  96 SE8       29.90F FOG
OLATHE EXE     LGT SNOW  34  33  96 SE7       29.88F FOG
SALINA         LGT RAIN  40  37  89 S9        29.80F
TOPEKA BILLARD LGT SNOW  33  32  96 SE7       29.89F FOG
TOPEKA FORBES  LGT SNOW  34  32  92 SE7       29.87F FOG
$$



USA.gov is the U.S. government's official web portal to all federal, state and local government web resources and services.